Regional Weather Roundup
Issued by NWS

Home | Current Version | Previous Version | Text Only | Print | Product List | Glossary Off
Versions: 1 2 3 4 5 6 7 8 9 10 11 12 13 14 15 16 17 18 19 20 21 22 23 24 25 26 27 28 29 30 31 32 33 34 35 36 37 38 39 40 41 42 43 44 45 46 47 48 49 50

059
ASUS45 KCYS 270410
RWRWY

WYOMING REGIONAL WEATHER ROUNDUP
NATIONAL WEATHER SERVICE CHEYENNE WY
1000 PM MDT WED APR 26 2017

NOTE:  "FAIR" INDICATES FEW OR NO CLOUDS BELOW 12,000 FEET
WITH NO SIGNIFICANT WEATHER AND/OR OBSTRUCTIONS TO VISIBILITY.

WYZ001-270500-
YELLOWSTONE NATIONAL PARK

CITY           SKY/WX    TMP DP  RH WIND       PRES   REMARKS
LK YELLOWSTONE   N/A     28  28 100 CALM      29.67S
W YELLOWSTONE  NOT AVBL

$$
WYZ002>013-054>058-071-098>099-270500-
NORTHERN WYOMING

CITY           SKY/WX    TMP DP  RH WIND       PRES   REMARKS
JACKSON        CLOUDY    34  34 100 W7        29.66F WCI  28
CODY           LGT RAIN  39  37  92 N8        29.63R WCI  33
GREYBULL       MOCLDY    47  35  63 CALM      29.60S
WORLAND        FAIR      45  38  76 CALM      29.59F
SHERIDAN       FAIR      32  28  85 NW5       29.65R WCI  27
BUFFALO        FAIR      37  25  61 S9        29.66R WCI  30
GILLETTE       FAIR      30  29  96 CALM      29.66F
HULETT         FAIR      32  28  86 MISG      29.69F
NEWCASTLE      FAIR      34  32  93 SE6       29.70S WCI  29

$$
WYZ014>020-022>026-101>103-270500-
CENTRAL WYOMING

CITY           SKY/WX    TMP DP  RH WIND       PRES   REMARKS
BIG PINEY      LGT RAIN  37  32  82 W8        29.68S WCI  31
PINEDALE       LGT RAIN  34  32  93 N6        29.69S WCI  29
DUBOIS         CLOUDY    32  30  93 W7        29.64S WCI  26
LANDER         FAIR      46  25  43 SW12      29.60S
RIVERTON       FAIR      46  31  55 S8        29.61S
CASPER         FAIR      39  37  92 E6        29.64F WCI  35
DOUGLAS        MOCLDY    41  34  76 E7        29.67R

$$
WYZ021-027>030-104>119-270500-
SOUTHERN WYOMING

CITY           SKY/WX    TMP DP  RH WIND       PRES   REMARKS
EVANSTON       FOG       34  34 100 SW15      29.73S VSB 3/4 WCI  24
KEMMERER         N/A     34  32  93 SW16      29.71F WCI  23
FORT BRIDGER   CLOUDY    37  37 100 W7        29.75S WCI  31
ROCK SPRINGS   CLOUDY    39  30  70 W9        29.71S WCI  33
DIXON          LGT RAIN  42  33  69 CALM      29.76F
RAWLINS        CLOUDY    40  30  67 SW15      29.70F WCI  32
SARATOGA       MOCLDY    36  34  93 SE9       29.73F WCI  29
LARAMIE        CLOUDY    34  30  85 S8        29.71F WCI  27
CHEYENNE       MOCLDY    39  32  76 W8        29.71F WCI  33
TORRINGTON     MOCLDY    43  38  82 SE8       29.68F
PINE BLUFFS    CLOUDY    39  37  93 E7        29.73S WCI  34

$$




USA.gov is the U.S. government's official web portal to all federal, state and local government web resources and services.